Wind_Speed
4 5 5 4 5 6 3 3 2 2 3 2 1 0 2 1 1 1 2 2 1 1 1 1 2 2 3 3 6 6 2 2 3 2 1 3 5 5 6 8 9 9 9 8 7 7 9 12 12 11 10 9 9 8 8 7 6 7 8 8 8 9 9 10 10 10 9 9 8 8 9 8 8 9 9 9 8 8 9 9 9 10 9 9 9 9 10 11 11 11 12 11 11 11 10 11 12
4 4 3 4 3 3 1 2 2 2 4 1 2 2 2 0 0 4 5 3 2 2 2 4 6 5 5 6 6 5 2 2 1 2 1 7 6 6 8 9 9 10 10 9 9 10 10 12 13 13 12 11 10 10 10 9 7 6 7 6 5 6 7 8 8 9 9 9 9 9 9 9 9 9 10 10 10 10 9 9 9 10 9 10 10 10 10 11 11 11 11 12 12 12 11 11 12
4 3 2 4 1 2 1 2 1 1 3 1 2 2 1 2 4 5 5 4 6 6 3 3 4 4 3 3 2 1 2 1 0 2 2 7 5 5 9 10 10 10 10 9 10 10 12 12 12 12 12 10 10 10 10 9 9 8 7 7 6 6 6 5 5 5 5 6 8 8 9 9 10 10 10 10 11 10 10 10 10 10 10 9 10 10 11 11 11 11 12 12 11 12 12 13 13
4 3 2 3 1 3 3 3 1 3 2 2 2 3 3 4 5 3 4 6 8 6 2 1 2 2 1 2 1 1 2 1 1 2 2 5 5 5 10 11 11 10 9 9 10 11 12 12 11 11 11 10 10 9 9 9 8 8 8 8 8 7 7 6 6 5 4 5 5 6 7 7 9 9 9 9 10 10 10 10 10 11 11 10 10 10 10 11 11 12 13 13 12 12 12 13 14
4 3 2 2 1 1 2 2 2 3 2 3 1 3 4 5 5 5 6 6 5 3 1 2 2 1 1 1 1 0 2 2 1 4 5 5 7 9 12 13 12 10 10 10 10 11 12 11 11 11 11 11 10 10 9 9 8 8 8 8 8 8 8 8 8 7 7 6 6 6 6 7 8 8 8 8 8 9 9 10 10 10 11 11 10 10 10 11 11 12 13 13 13 14 13 13 13
5 5 3 3 2 1 2 2 2 2 4 4 2 3 5 7 7 9 6 3 2 2 2 2 2 2 1 1 0 0 1 2 4 5 7 8 10 12 14 14 13 12 12 12 12 13 14 12 12 12 12 13 12 12 11 11 10 10 9 8 8 8 7 7 7 8 8 8 8 7 7 7 8 8 8 9 9 9 9 9 9 9 10 12 12 11 11 11 12 12 13 13 13 14 13 13 13
6 4 4 4 2 2 2 2 3 3 3 4 2 3 8 8 7 9 7 3 2 1 2 2 3 5 1 1 1 1 1 3 4 7 9 12 13 13 15 14 14 15 14 14 13 15 15 14 14 14 14 14 14 14 13 13 12 11 11 10 9 8 8 7 7 7 7 7 8 7 8 8 8 8 9 9 10 9 9 8 8 8 8 10 12 12 12 12 12 13 13 13 14 14 13 13 13
5 1 1 3 1 3 3 2 3 3 1 2 2 3 8 10 8 9 9 5 3 2 2 3 2 3 1 0 2 1 2 6 9 12 14 15 15 14 14 14 15 15 15 15 14 15 15 14 13 13 14 14 14 13 13 13 12 12 12 12 11 10 10 9 9 8 8 7 7 7 8 8 8 9 9 10 10 10 10 10 10 10 10 9 10 11 12 12 12 12 13 13 15 15 15 14 14
3 2 0 2 1 2 2 1 2 3 2 3 3 2 4 8 7 8 10 4 1 4 4 5 2 1 3 2 1 1 4 11 14 16 16 16 15 15 14 14 14 15 15 15 14 14 14 14 13 13 13 13 12 12 12 12 11 11 11 11 11 11 11 10 10 10 9 9 9 8 8 9 9 10 10 11 11 11 11 12 12 12 12 12 12 12 12 12 13 13 13 13 15 16 16 16 15
4 3 1 2 2 1 2 1 2 2 3 3 3 3 5 7 5 6 9 4 3 6 5 3 1 2 5 4 1 1 7 14 17 17 16 16 15 14 14 13 14 14 14 14 14 13 13 13 13 12 12 12 12 12 11 11 11 10 10 10 10 10 11 11 11 10 10 10 10 10 10 10 10 10 11 11 12 12 12 13 13 13 13 14 14 13 14 14 14 15 15 16 16 17 17 18 18
2 3 2 3 2 1 2 3 3 3 3 3 3 3 6 7 5 4 4 3 3 5 5 3 2 4 4 2 1 2 12 16 17 19 17 16 15 14 14 13 13 13 13 13 13 12 12 12 12 12 12 11 11 12 12 12 11 11 11 11 11 10 10 10 10 11 11 11 10 10 10 10 10 11 11 12 12 13 13 13 13 13 13 14 14 14 15 15 15 15 16 17 18 18 18 19 19
1 2 3 3 2 2 3 3 3 3 4 2 2 3 4 7 6 6 6 5 5 4 4 5 3 5 5 1 1 5 14 18 18 20 18 16 15 14 13 13 12 12 12 12 12 12 11 11 11 11 11 11 11 11 12 12 12 12 13 13 12 12 12 11 11 11 11 11 11 11 11 11 11 11 11 12 12 13 13 13 13 13 14 14 15 15 15 16 16 16 16 17 17 19 20 20 20
2 1 4 2 2 1 2 2 3 2 3 3 4 2 5 8 6 8 8 5 7 6 4 6 4 4 4 2 1 5 13 19 20 19 18 17 15 14 14 13 12 11 11 10 10 11 11 11 11 11 10 11 11 11 12 12 13 13 13 13 14 14 14 14 13 13 13 13 13 13 13 13 13 13 13 13 13 13 14 14 14 14 14 15 16 16 16 16 16 16 16 17 17 18 19 20 21
2 3 4 2 0 1 3 1 2 2 4 4 3 3 4 3 3 6 8 5 8 6 1 5 6 3 2 2 1 3 13 23 22 19 18 16 15 15 14 14 12 11 11 9 10 10 10 10 10 10 10 10 10 11 11 12 12 12 13 13 14 14 14 14 14 14 14 14 14 14 14 15 15 15 15 16 16 16 16 16 15 15 15 16 16 17 17 17 17 17 17 17 18 18 19 20 21
3 2 4 3 1 0 3 1 2 3 4 3 4 4 4 1 1 4 6 6 7 3 1 4 6 2 3 6 4 6 19 27 23 20 18 16 15 15 14 14 13 12 11 9 10 10 10 10 10 10 9 10 10 10 11 11 11 11 12 12 13 13 13 14 14 14 14 14 15 15 15 15 16 16 16 17 17 18 18 18 18 17 17 18 18 18 18 18 18 19 18 18 18 19 20 20 21
3 3 4 3 1 1 3 2 2 1 4 2 3 4 5 1 1 3 3 2 2 1 1 3 4 1 3 6 3 11 27 29 25 22 19 17 16 15 14 14 13 12 11 9 9 9 9 9 9 9 9 10 9 10 10 10 11 10 11 11 12 13 13 13 14 14 14 14 15 15 16 16 16 17 17 17 18 18 19 19 19 20 20 20 20 20 19 19 19 19 19 20 20 20 21 21 21
2 3 4 2 2 3 4 4 4 3 4 3 2 5 6 0 1 1 1 3 3 2 1 2 2 1 3 4 3 17 32 29 26 23 20 19 18 16 14 13 13 12 11 9 9 8 9 8 8 8 9 9 9 9 9 9 10 10 10 11 11 12 13 13 14 14 14 15 16 16 17 18 18 19 19 19 19 19 19 19 20 20 21 22 22 22 22 22 20 20 20 20 21 21 22 21 21
3 3 2 1 3 3 5 7 7 3 2 4 5 5 6 4 2 2 1 3 3 1 2 2 3 2 3 5 6 24 32 29 27 25 22 20 18 16 14 13 13 12 11 10 9 8 8 8 8 7 8 8 7 8 8 8 9 9 9 10 11 11 12 13 13 14 14 15 16 17 18 19 19 20 21 22 22 22 22 22 22 22 22 23 23 23 24 24 23 22 22 22 22 22 23 23 23
3 3 2 3 5 5 5 6 5 2 1 4 5 4 4 5 5 4 3 1 2 3 4 3 4 3 1 4 16 27 30 29 28 26 24 21 19 18 16 15 14 13 12 11 10 8 7 7 7 6 7 7 6 7 7 7 8 8 9 9 10 11 12 12 13 13 14 15 15 16 17 18 18 19 20 21 21 22 23 24 24 25 25 25 25 25 25 25 25 25 24 24 24 24 24 24 24
1 3 2 4 5 4 4 5 6 4 2 5 5 4 2 3 5 4 3 3 3 6 7 4 7 7 5 7 18 25 27 28 27 27 25 23 22 20 19 19 17 16 14 12 10 9 7 7 6 5 5 5 5 6 6 6 7 7 8 9 10 10 11 12 13 13 14 15 15 16 17 17 18 18 19 20 20 21 22 23 24 25 25 26 26 26 27 27 27 27 27 27 27 27 27 26 26
1 3 3 4 2 2 3 6 6 4 3 5 5 4 3 3 4 4 6 5 4 8 10 12 13 11 9 8 15 23 25 25 25 25 24 23 22 21 21 21 19 17 15 12 11 9 8 6 5 4 4 4 5 5 5 6 6 6 7 8 9 10 11 12 13 13 14 15 16 17 17 18 18 19 20 20 21 22 22 23 23 24 25 25 26 27 27 27 28 28 29 29 29 29 29 28 27
1 0 3 4 3 1 2 4 4 3 4 4 6 4 4 3 2 5 9 8 7 6 10 13 10 9 13 13 16 20 20 22 23 23 24 24 23 22 21 19 18 16 14 12 10 9 7 6 5 4 3 4 4 5 5 5 5 6 7 8 9 10 11 12 12 13 14 15 16 16 17 18 18 19 20 21 21 22 22 23 23 23 24 24 25 26 27 27 27 28 29 29 30 30 30 29 28
1 2 3 3 3 1 1 2 4 4 6 5 5 4 4 5 4 4 10 13 7 2 5 7 7 12 17 18 17 15 15 19 22 25 26 25 24 23 22 20 19 17 15 12 10 9 7 6 5 3 3 3 4 4 4 4 5 6 7 8 8 9 10 10 11 13 13 14 15 15 16 17 18 19 20 20 21 22 23 23 24 24 24 24 24 25 25 26 27 27 28 28 29 30 31 30 29
3 1 3 3 3 4 2 2 3 4 5 5 4 3 4 7 5 1 9 16 6 1 3 4 9 16 18 14 13 14 17 20 23 26 26 26 25 24 23 21 19 17 15 12 10 9 7 6 5 4 3 3 3 3 2 3 4 5 6 6 7 8 8 9 10 11 12 12 13 14 15 15 17 18 19 19 20 21 22 23 24 25 25 25 25 25 25 26 26 26 27 27 28 29 30 31 31
3 2 3 1 2 5 2 2 4 4 3 2 4 3 5 6 2 1 11 14 5 2 2 5 9 14 14 12 11 13 15 18 21 23 24 25 24 23 22 21 19 17 16 14 12 10 8 7 5 4 3 3 2 2 2 2 3 4 4 5 6 6 7 8 9 9 10 11 12 13 14 15 16 16 18 19 20 21 23 24 25 25 25 26 26 26 26 26 26 26 26 26 27 28 29 30 31
2 4 3 1 3 5 3 1 3 2 2 3 4 5 5 1 1 6 12 9 4 4 5 7 10 11 11 11 11 12 12 16 21 23 24 24 23 23 22 21 20 19 17 15 13 10 8 7 6 5 4 4 3 2 2 2 3 3 4 4 5 5 6 7 7 8 9 10 11 13 14 15 16 17 18 19 21 22 23 24 25 26 26 27 27 27 26 27 27 27 26 25 25 27 28 29 30
3 4 3 2 3 5 3 2 2 1 2 4 5 6 5 3 1 7 6 3 6 7 6 7 10 10 11 10 11 14 14 18 24 23 22 23 23 24 24 23 21 19 17 15 13 11 9 8 7 6 5 5 4 3 3 2 3 3 4 4 4 5 6 6 7 7 8 9 11 12 14 15 16 17 18 19 20 21 23 24 24 25 26 27 27 28 28 28 28 27 26 25 25 25 25 26 27
2 3 2 2 4 4 2 3 4 2 2 5 6 4 4 3 2 10 3 4 6 8 7 7 10 10 10 10 9 11 14 19 23 22 24 26 27 27 27 26 23 20 18 16 14 11 9 9 8 8 7 6 5 4 3 2 2 2 3 3 3 4 5 6 6 7 8 9 11 12 13 14 15 16 17 18 19 20 21 22 23 24 25 26 26 28 28 29 29 28 28 27 26 26 25 24 23
1 3 1 5 6 3 2 2 2 1 2 5 5 3 5 5 11 11 2 5 4 6 8 7 9 8 8 10 7 7 12 18 21 24 26 27 28 29 28 27 24 22 19 17 15 12 11 10 10 9 8 7 6 5 3 2 2 1 2 2 3 4 5 5 6 6 8 9 10 11 12 13 13 14 16 17 18 19 20 21 21 22 23 24 26 27 28 29 29 29 30 29 28 27 26 25 24
1 2 1 3 6 3 2 1 1 2 3 4 3 4 6 11 17 9 4 6 6 6 7 6 7 7 8 9 7 7 12 17 21 25 26 25 27 29 28 26 24 22 20 18 16 14 13 12 11 11 9 8 6 5 4 3 2 1 0 1 2 3 4 5 5 6 7 8 9 10 11 13 13 14 15 17 18 19 20 21 21 21 22 23 25 26 27 28 28 29 30 29 29 28 25 25 24
1 0 2 2 2 3 5 1 4 3 2 3 3 4 8 9 12 6 5 7 8 8 8 6 7 7 8 9 8 8 11 18 21 23 25 26 28 28 27 26 24 22 20 19 17 15 14 13 12 12 10 8 7 6 4 4 3 2 1 1 1 3 4 4 5 5 6 7 9 10 12 13 13 13 15 17 19 20 21 21 21 21 22 23 24 25 25 26 27 27 28 29 30 29 29 29 29
3 1 3 3 0 4 7 2 6 4 1 1 4 4 10 10 8 3 4 6 8 10 8 7 9 9 9 8 9 8 9 16 19 21 25 27 28 28 28 27 25 24 22 20 18 16 15 14 14 13 11 9 7 6 5 5 4 2 1 1 1 3 4 4 5 5 6 7 8 10 11 13 13 14 16 19 20 21 21 22 22 22 23 23 24 24 25 25 25 26 26 26 27 30 33 34 35
3 1 3 3 1 3 6 2 4 3 1 1 4 3 8 8 4 2 3 6 7 9 9 9 10 11 10 8 9 8 8 10 14 21 27 28 28 29 29 27 26 25 23 21 19 18 17 15 15 13 11 10 8 7 6 5 4 3 2 1 1 3 4 4 4 5 6 7 8 10 11 13 14 15 17 20 21 22 22 22 22 23 23 24 24 25 25 25 25 25 23 22 24 27 29 30 31
3 2 2 4 3 3 4 4 3 1 3 4 4 5 12 13 6 2 4 6 7 9 11 11 10 10 9 8 9 9 9 9 12 21 28 29 29 30 29 28 27 25 24 22 20 19 17 16 15 13 12 10 9 8 7 6 5 3 3 2 2 3 4 4 4 5 6 7 8 10 12 14 15 16 19 21 22 22 23 23 23 24 24 25 25 25 26 25 25 23 22 24 24 23 23 24 26
3 3 3 3 3 4 5 5 2 2 3 5 4 7 16 19 13 7 6 7 10 13 12 11 11 10 9 9 10 10 11 12 14 21 27 29 30 30 30 29 27 27 25 23 21 19 17 16 15 14 12 11 10 9 8 7 5 4 3 2 2 3 4 4 5 6 7 8 9 10 12 14 15 17 19 20 21 22 23 23 24 24 25 26 26 27 27 27 26 25 25 26 26 23 22 24 26
6 5 4 4 4 5 6 5 4 2 2 7 8 10 15 18 17 12 7 7 11 14 11 9 10 9 9 10 11 12 14 14 16 21 25 29 31 31 31 30 29 28 27 25 23 21 19 17 16 15 14 12 11 10 9 8 6 4 3 3 3 3 5 5 5 7 7 8 9 10 12 14 16 17 19 20 21 22 23 23 24 25 26 26 27 28 28 27 27 26 25 25 26 24 21 21 23
5 4 4 5 5 7 6 3 4 0 1 9 9 9 14 16 16 15 8 6 11 15 11 11 12 10 10 12 14 15 16 14 13 19 24 28 30 31 31 31 30 29 28 27 25 23 20 18 18 16 15 14 13 12 10 8 6 5 4 4 4 4 5 6 6 7 8 9 10 11 13 15 16 18 19 21 22 22 23 24 25 25 26 27 27 27 27 27 26 24 23 23 23 23 21 17 17
4 5 4 4 5 7 6 1 4 1 2 6 5 6 15 16 14 15 9 7 15 16 13 15 16 11 10 13 16 16 13 8 9 15 21 26 29 32 33 32 33 33 31 30 28 25 22 19 18 17 16 15 14 13 11 8 6 5 4 4 5 5 5 7 7 8 9 10 11 13 14 16 17 18 20 21 22 23 24 24 25 26 27 27 28 28 28 28 27 23 21 22 21 21 21 18 16
3 3 2 3 4 5 6 3 4 1 2 5 6 8 17 18 15 17 14 15 19 13 12 17 15 11 12 15 16 14 12 10 10 13 18 25 29 32 33 34 36 35 33 32 30 27 24 21 20 18 17 16 14 13 11 8 6 5 4 4 5 6 6 7 9 9 10 11 12 13 15 16 17 19 20 22 23 24 24 25 26 27 28 28 29 30 29 29 29 25 21 21 22 22 22 19 15
3 3 3 4 3 1 4 4 3 1 2 4 7 10 15 16 14 16 14 14 15 11 12 15 11 12 15 15 13 13 15 15 14 14 15 21 26 30 33 34 35 35 34 34 32 29 27 24 21 19 18 16 14 13 10 8 6 5 5 4 5 7 7 8 9 10 11 12 14 14 15 16 18 19 20 22 23 24 25 25 27 27 28 28 29 30 30 29 28 26 23 21 21 23 23 20 15
3 5 6 6 4 5 5 3 3 2 1 3 6 10 11 7 8 10 6 3 9 10 10 12 10 12 12 11 12 14 16 16 16 16 15 18 23 29 33 34 34 35 35 36 35 32 29 26 22 19 17 15 14 12 10 9 7 5 5 5 5 7 8 9 10 11 11 13 15 15 16 16 18 19 21 22 23 24 24 25 26 27 28 28 28 28 29 28 27 25 23 21 19 20 24 24 19
3 6 10 10 7 6 3 3 4 4 3 3 5 8 8 1 2 8 3 2 7 6 8 12 11 10 9 10 12 13 14 14 15 15 15 17 23 28 31 32 34 36 37 38 37 34 31 27 23 19 17 15 14 12 11 9 8 6 6 6 6 7 10 10 10 11 13 14 15 17 17 17 18 20 21 22 23 24 25 25 26 26 27 28 28 28 29 28 27 25 22 20 20 19 21 26 25
2 4 7 8 5 3 1 2 2 0 3 3 4 2 9 4 3 6 4 6 9 6 10 14 10 8 10 12 12 12 12 12 13 13 14 17 22 26 29 33 36 37 38 38 37 35 32 28 23 20 17 15 14 13 11 10 9 7 7 7 7 8 11 11 11 12 14 15 16 17 18 18 19 21 22 23 24 25 26 27 27 27 28 29 29 29 30 29 28 26 23 21 21 21 20 24 27
3 3 4 6 6 5 4 3 1 3 2 3 0 3 8 9 5 7 6 9 12 10 13 15 10 9 11 12 12 12 13 13 12 13 15 17 22 28 31 35 38 38 38 38 38 37 33 29 25 21 17 15 14 13 12 10 9 8 7 8 9 10 11 12 12 13 14 15 17 18 18 19 20 22 23 24 25 26 27 28 28 28 29 30 30 30 31 31 29 28 26 24 23 23 21 23 26
4 3 5 6 6 5 4 4 2 2 3 4 4 4 5 11 5 1 1 6 11 12 15 16 11 10 11 12 13 13 13 12 12 14 15 17 23 31 34 35 36 37 37 39 40 37 33 30 26 21 17 15 14 13 12 10 9 9 8 9 10 11 11 12 13 14 15 15 17 18 19 20 22 23 24 25 26 26 27 28 29 29 30 31 31 31 32 32 31 31 29 27 25 25 24 24 27
3 5 6 6 5 5 4 3 2 1 2 7 8 8 5 11 4 4 3 3 9 11 12 13 10 8 9 11 12 12 10 9 11 14 15 18 24 30 31 32 34 35 37 39 39 37 34 31 26 22 18 15 14 13 12 11 10 9 9 9 11 11 11 12 13 15 16 16 18 19 19 21 24 25 26 26 27 28 28 28 29 30 31 33 33 32 33 33 33 31 30 29 28 28 28 26 28
5 6 5 6 5 4 3 1 3 1 5 8 9 13 10 9 3 7 4 5 8 9 8 10 8 7 9 10 10 9 8 9 10 12 12 15 21 25 28 30 32 34 35 37 38 37 35 32 28 23 18 15 15 13 12 11 10 10 10 10 11 11 10 12 14 16 16 17 19 20 21 23 25 26 27 28 29 29 29 29 30 31 33 34 35 35 34 34 33 31 30 30 29 29 30 29 30
5 4 4 3 3 3 4 3 3 1 7 5 4 9 10 10 6 4 6 6 7 9 8 9 9 9 9 8 8 8 8 9 9 9 9 10 14 19 25 29 30 32 34 37 38 37 36 32 28 23 18 16 15 14 13 11 11 11 10 10 10 10 10 12 14 16 16 17 19 21 23 26 28 29 29 29 30 30 30 32 33 34 34 35 36 37 36 35 33 32 30 30 30 30 30 29 31
4 4 5 3 4 3 3 3 1 3 7 3 2 3 5 12 10 6 8 10 10 11 10 9 9 9 8 7 7 6 6 8 8 8 8 9 11 14 21 26 28 32 35 37 37 37 35 33 29 24 20 17 16 15 13 12 12 11 10 10 10 9 10 12 13 15 16 17 19 20 23 26 28 30 31 31 32 31 31 33 34 35 36 37 37 37 37 36 33 32 31 31 32 32 31 30 32
5 5 4 3 1 1 3 4 2 5 7 2 3 3 4 9 7 11 17 17 16 14 11 10 8 9 8 4 4 5 6 7 7 7 9 10 11 14 20 25 28 31 34 35 36 36 35 33 29 25 20 17 16 15 14 13 12 11 10 10 9 9 10 12 13 15 16 17 18 20 23 26 28 31 33 33 33 32 32 33 33 35 36 36 37 36 36 34 32 31 32 33 33 33 32 32 33
4 4 5 5 5 4 5 4 4 7 6 3 1 2 4 4 3 8 14 13 14 13 10 8 7 9 6 3 3 5 6 7 6 8 10 11 12 15 20 24 27 30 32 34 35 36 35 33 30 25 20 18 17 16 15 14 13 11 10 9 8 9 10 12 13 14 16 17 19 21 24 26 28 31 34 34 35 34 34 34 34 34 35 35 34 34 33 32 31 32 32 33 34 33 32 34 35
2 2 4 3 5 5 3 3 4 1 5 5 3 4 6 4 2 4 4 4 10 13 10 7 10 11 6 4 7 6 6 7 7 8 10 10 11 16 20 23 26 28 31 33 35 37 36 33 30 26 21 19 18 16 15 14 13 11 10 9 8 9 10 12 13 14 16 18 20 22 25 27 29 32 34 36 36 36 36 35 35 36 36 34 32 31 31 31 30 31 32 32 33 33 32 35 36
3 2 3 4 4 5 2 3 1 4 3 7 2 5 10 6 5 5 4 5 10 11 7 8 13 11 6 6 8 7 8 8 7 9 9 8 10 15 20 23 26 29 32 34 36 37 37 34 31 26 21 19 18 17 15 14 12 11 9 8 8 9 10 11 13 15 17 19 21 23 25 28 29 31 34 35 37 37 37 37 37 38 37 35 32 30 29 30 29 29 30 31 32 32 32 35 35
6 4 5 3 2 3 2 2 3 2 4 6 4 9 15 12 8 0 5 7 13 11 9 11 12 10 8 9 9 10 9 7 7 8 8 8 10 15 21 25 28 32 34 35 37 37 37 35 32 27 23 21 19 17 15 13 12 10 8 8 7 8 10 11 13 15 17 19 22 23 25 28 30 31 33 35 36 38 38 38 38 39 39 37 34 30 29 29 28 29 30 30 31 30 32 34 33
5 3 3 3 3 2 2 2 3 3 4 6 11 15 16 15 8 2 6 12 14 12 11 10 11 11 10 10 11 11 9 6 7 8 8 9 10 15 20 24 27 31 33 34 37 37 37 35 31 26 22 20 18 16 15 13 11 9 8 7 7 8 10 12 13 15 17 19 22 24 26 28 30 31 33 34 36 37 38 39 38 38 38 35 33 32 30 28 27 28 28 29 29 28 30 32 30
2 0 1 1 2 4 3 3 3 3 3 5 13 16 14 11 6 8 11 13 12 12 11 10 12 13 11 9 10 10 8 7 8 8 9 10 11 15 21 24 27 30 32 34 36 37 36 33 29 24 21 19 17 16 14 11 9 8 7 7 7 8 10 12 14 15 17 19 22 23 25 28 29 31 32 33 35 36 37 37 36 36 35 33 32 32 29 27 27 27 26 27 28 28 29 30 29
4 3 3 2 1 2 1 1 2 4 4 3 6 12 16 7 8 10 11 10 11 12 10 9 11 11 10 10 10 9 8 8 8 9 9 10 10 13 20 23 26 28 30 33 36 36 35 32 28 24 22 20 17 15 13 10 8 7 7 7 7 9 10 12 13 15 17 19 21 22 25 27 29 31 32 33 34 35 35 35 34 34 33 32 32 31 29 27 27 27 27 28 28 28 28 29 29
9 8 8 9 6 4 1 4 3 3 3 5 4 10 19 6 7 6 7 7 9 11 11 10 9 11 11 10 10 9 8 9 9 9 9 8 8 11 17 21 24 27 29 32 34 35 34 32 28 24 22 19 17 14 12 9 7 7 6 6 7 9 10 12 13 15 17 19 20 22 24 27 29 31 32 33 35 35 34 33 32 32 32 31 31 30 28 26 27 29 29 29 28 27 29 29 28
Wind_Direction
147 152 149 137 142 142 100 59 90 331 77 83 282 177 245 192 103 187 159 188 236 302 256 90 90 94 103 115 133 139 119 149 163 140 186 146 110 79 81 84 89 90 86 83 77 70 66 59 52 54 58 58 56 55 56 61 62 53 53 51 51 49 46 43 39 36 31 24 14 11 8 1 356 353 352 346 342 340 335 331 327 322 317 315 317 320 317 315 316 316 316 316 314 312 313 312 311
145 153 152 150 140 150 182 57 102 336 57 103 238 171 246 340 114 196 188 192 170 140 113 96 92 77 70 88 112 119 78 15 175 134 115 147 121 70 87 89 92 94 91 94 90 86 82 70 60 60 65 68 69 68 68 69 72 64 55 51 45 45 50 49 48 45 40 33 25 19 16 11 5 1 0 357 354 353 348 347 343 336 329 321 319 323 318 313 313 311 310 310 310 310 311 306 302
146 157 157 164 103 43 93 43 96 95 82 170 247 218 207 164 200 215 205 173 144 146 130 98 85 67 59 76 94 87 90 333 175 131 96 148 145 68 92 94 96 97 97 100 96 94 88 80 73 70 70 73 74 72 73 71 72 68 59 55 47 42 41 40 40 35 33 28 20 16 15 14 10 10 9 3 359 357 356 353 352 350 342 330 324 326 327 324 319 311 307 307 306 306 306 305 303
143 148 175 168 74 28 67 42 136 128 131 195 247 230 192 176 195 212 185 153 147 149 134 93 62 10 46 100 144 58 126 224 282 158 113 124 136 102 99 99 102 104 106 105 103 99 92 89 86 83 78 78 77 76 78 75 73 68 65 61 55 53 48 44 37 27 18 8 4 359 0 3 3 6 4 360 360 357 357 353 351 351 347 339 327 324 329 330 328 320 316 313 307 305 303 300 300
157 138 170 163 95 53 97 69 116 121 188 180 187 234 203 180 169 159 157 162 170 163 185 136 100 318 12 76 158 144 138 124 104 144 123 116 129 118 106 102 106 110 111 109 108 103 96 96 94 91 86 82 81 80 80 78 76 71 68 65 61 58 53 50 44 40 35 25 18 9 5 4 359 357 351 352 355 354 357 354 349 345 341 340 333 328 329 330 331 327 324 323 315 308 301 295 294
150 118 86 89 85 120 129 120 137 179 217 167 167 226 185 174 162 150 149 181 223 181 183 161 139 154 90 355 221 176 205 131 123 135 128 133 136 122 111 107 109 109 108 110 111 106 99 99 98 95 91 88 86 84 82 80 78 76 73 69 65 60 55 49 45 41 37 32 27 23 19 14 8 1 354 350 347 348 356 355 348 342 337 333 330 328 327 331 329 324 323 323 321 315 308 300 297
155 124 50 76 68 31 114 152 171 201 204 168 193 186 165 170 161 146 151 170 198 175 153 179 153 128 101 289 159 358 290 174 139 140 140 139 134 122 117 114 112 108 106 110 112 109 103 101 100 96 93 90 87 84 81 80 77 76 74 71 68 62 58 51 46 40 34 30 23 20 17 14 11 4 357 351 346 344 342 340 337 334 335 330 328 323 323 334 330 325 325 319 315 313 311 308 302
152 150 11 98 51 25 91 146 188 202 187 214 247 180 168 169 160 154 166 176 177 178 142 170 165 118 141 90 142 346 92 140 136 138 139 137 133 125 122 118 112 108 107 108 110 112 109 105 103 100 96 92 88 85 81 78 76 73 70 67 65 61 58 54 49 44 39 34 26 21 18 15 10 6 1 355 351 346 339 333 329 325 324 319 320 318 316 326 326 325 325 318 311 305 303 304 302
80 32 54 88 82 38 59 123 210 234 253 256 246 209 180 165 160 161 167 182 167 154 160 175 202 197 157 107 133 291 122 134 134 136 137 137 134 130 127 119 112 107 106 105 106 107 108 106 104 103 101 97 93 89 85 80 76 72 69 65 62 58 54 51 48 44 40 35 31 25 21 18 12 9 4 0 356 352 346 341 339 337 333 326 321 318 313 313 312 312 312 309 307 302 297 297 298
42 24 150 76 94 51 345 242 239 254 247 252 244 211 173 162 158 164 165 180 168 150 169 170 116 137 144 144 171 265 154 146 140 137 137 138 136 135 130 119 112 107 104 102 100 99 100 102 99 99 96 95 92 88 86 81 77 72 68 63 58 55 51 46 44 40 37 32 28 24 20 17 12 9 4 1 358 354 351 348 348 347 344 339 332 328 324 320 316 312 307 303 302 301 297 295 295
36 357 94 77 86 140 218 221 244 255 265 293 274 220 173 161 135 141 153 164 177 152 171 173 141 143 132 164 246 162 156 154 148 141 139 139 138 138 133 122 115 108 104 100 99 98 96 96 95 94 91 89 88 85 81 77 74 69 65 61 56 52 48 42 39 35 33 29 25 22 19 16 11 8 5 0 357 354 352 351 351 351 348 344 338 334 330 327 326 323 316 309 303 302 300 299 296
87 330 65 93 147 192 209 198 236 266 304 310 216 224 166 157 140 157 170 170 179 168 197 197 178 141 129 227 246 157 160 163 155 146 142 140 138 138 135 129 122 113 108 103 101 100 97 96 93 90 88 85 84 82 79 75 70 66 62 58 54 50 47 43 38 35 31 28 24 22 18 15 13 9 6 2 358 354 351 349 349 350 348 344 341 339 335 330 328 327 325 320 312 306 303 302 298
128 156 93 128 175 174 186 174 251 298 307 254 194 187 145 162 180 179 165 153 165 167 224 197 158 117 138 229 194 161 176 173 159 151 149 143 140 136 136 134 128 121 113 111 104 101 100 98 94 89 86 83 81 79 77 74 69 65 62 57 54 49 46 42 38 36 32 31 27 24 21 17 15 11 8 4 360 355 352 350 349 348 345 341 338 338 337 334 330 327 325 323 321 316 310 304 300
140 148 117 143 58 124 164 175 262 212 248 248 177 152 140 174 211 171 146 149 184 180 231 173 151 130 141 186 196 199 188 178 165 159 156 148 144 136 137 137 133 128 120 117 108 102 101 98 96 92 87 82 78 76 72 71 67 63 60 56 53 48 45 41 37 35 31 30 28 25 23 20 17 14 11 7 4 0 356 354 353 352 347 341 337 336 334 332 331 328 325 322 321 319 315 309 305
134 127 90 108 39 348 183 223 201 175 235 213 154 150 116 7 122 153 159 168 203 205 75 147 160 189 188 177 202 205 183 177 171 167 163 156 151 142 139 138 135 132 126 121 113 106 102 99 97 93 88 84 78 75 71 69 65 60 58 54 51 47 42 39 35 33 29 27 25 24 21 20 18 15 13 10 8 4 1 359 358 357 352 347 342 339 335 332 330 328 325 322 319 316 314 311 309
121 115 68 97 139 220 204 213 131 143 245 202 150 149 116 339 93 151 216 149 166 179 129 173 181 256 188 187 236 187 176 175 174 172 170 165 159 150 143 139 136 132 129 127 119 111 106 103 99 93 88 83 77 74 70 67 64 59 56 53 49 44 39 36 32 29 26 24 22 20 17 16 15 13 12 10 8 6 4 2 0 360 356 352 349 346 342 337 333 329 326 322 319 315 311 309 309
62 83 72 104 168 204 201 187 179 176 228 214 191 173 140 208 346 150 290 72 114 155 251 234 242 323 198 252 282 171 170 171 173 172 171 166 161 157 148 140 136 133 134 133 126 118 114 110 102 95 89 83 77 73 69 64 61 56 53 49 46 40 36 32 28 24 21 20 18 16 14 13 12 10 9 8 7 6 5 3 1 359 356 353 350 348 346 342 339 334 329 324 321 317 314 310 307
54 79 105 191 179 201 192 183 197 174 192 192 190 180 148 169 190 167 94 50 67 128 264 291 308 304 249 267 169 161 164 167 171 170 168 165 165 166 157 146 140 141 142 140 136 128 123 116 107 99 91 85 79 75 70 64 59 54 50 45 41 35 32 28 23 20 17 15 14 12 11 10 10 8 7 5 4 4 3 2 1 359 356 354 351 349 346 343 342 339 334 329 325 321 318 316 312
84 112 96 241 196 208 203 179 191 185 145 161 177 182 161 184 168 157 195 224 114 168 243 309 308 281 234 178 154 157 162 166 171 171 170 170 174 174 165 156 151 153 154 151 146 136 129 121 112 105 94 88 82 77 70 64 58 50 45 41 37 31 28 25 20 17 13 11 10 9 9 8 7 6 5 3 1 0 0 360 359 358 356 355 352 350 347 344 341 339 336 333 329 326 324 321 319
158 115 94 247 210 227 225 189 201 204 152 144 169 171 179 209 159 160 188 173 171 200 215 207 237 226 172 164 159 159 163 168 173 175 175 178 181 178 170 167 165 166 164 158 149 141 136 127 118 107 97 93 86 78 70 62 55 46 41 37 33 30 26 23 20 16 13 11 9 9 9 7 5 4 3 1 359 358 357 357 356 355 354 354 352 349 348 345 342 338 336 334 332 330 329 326 323
141 113 178 231 190 226 218 201 212 196 158 150 143 134 193 213 162 178 156 148 226 233 220 206 214 196 168 176 170 166 168 171 177 179 181 183 186 182 177 175 173 170 163 156 150 148 143 135 126 111 102 97 88 78 69 60 54 45 40 37 32 30 26 23 20 16 14 12 10 10 7 5 4 2 2 1 0 359 358 356 355 354 352 351 350 348 347 346 343 340 337 334 332 331 329 328 325
93 253 234 217 162 198 215 200 204 162 121 116 123 152 187 151 172 195 170 194 228 227 224 216 210 175 168 175 174 173 174 176 181 184 186 187 187 183 179 177 172 167 162 159 157 155 150 144 138 125 116 100 87 73 62 55 48 39 36 35 30 27 24 21 19 17 16 13 10 8 5 4 3 2 2 2 2 1 360 358 357 355 353 352 350 348 346 345 343 340 337 334 331 329 327 326 324
131 275 287 230 199 232 210 186 213 157 125 145 161 176 145 142 238 212 192 221 218 176 234 216 191 171 172 170 170 176 179 183 187 189 189 187 187 182 180 178 173 168 167 167 162 159 158 154 153 147 133 109 92 72 59 49 38 31 29 25 21 21 19 16 16 18 17 14 11 8 6 4 4 3 3 3 2 2 0 359 358 358 356 354 353 350 347 345 343 340 336 333 329 326 324 323 321
98 204 278 237 206 233 215 154 202 159 154 189 161 133 155 184 234 118 214 232 221 210 259 196 170 163 168 170 176 185 184 188 191 192 191 188 188 185 182 180 175 172 170 170 167 166 168 165 167 171 152 128 109 82 59 42 35 30 28 23 21 22 18 16 18 19 17 15 13 11 10 7 6 5 3 3 1 1 0 360 360 359 358 356 355 353 348 344 342 339 336 332 329 325 322 320 319
82 168 243 219 225 255 269 150 171 163 186 152 124 185 215 196 201 280 237 234 220 195 149 146 153 154 169 180 184 189 187 191 192 193 194 192 188 185 184 181 175 175 174 173 173 173 171 172 178 181 169 147 129 108 85 62 53 42 39 33 32 29 22 22 23 23 20 18 17 15 14 12 11 9 7 5 3 2 1 1 0 358 357 356 354 353 348 343 339 337 335 331 328 325 321 318 316
174 166 196 196 277 296 336 241 172 156 217 121 150 243 272 262 289 271 253 227 176 134 129 146 152 161 182 185 188 189 188 191 191 192 193 191 187 185 184 181 179 178 177 176 176 177 172 177 185 184 179 162 147 138 123 97 79 62 55 46 41 37 30 31 30 27 23 20 20 18 19 17 15 13 10 8 5 2 1 360 358 356 355 354 351 350 347 344 340 338 334 328 324 321 318 317 315
164 152 180 191 297 318 2 302 310 1 222 169 193 248 284 335 334 258 266 166 146 130 137 164 164 178 189 187 195 192 193 195 191 189 189 191 191 189 186 182 182 179 178 179 179 179 176 183 190 189 185 176 168 155 140 113 91 73 66 54 47 42 37 39 34 29 25 22 22 20 19 18 15 12 9 6 4 2 360 358 356 354 352 351 349 346 345 344 342 339 335 329 322 317 313 312 312
125 129 190 300 337 312 314 303 300 307 226 176 173 245 291 7 246 239 238 130 155 145 159 183 182 192 191 191 195 193 201 199 192 189 190 195 194 191 188 184 182 179 181 183 181 180 183 190 195 194 190 185 177 163 149 136 112 90 77 62 50 42 38 39 34 26 23 21 20 18 17 15 12 10 7 4 3 0 358 357 355 353 350 348 346 344 343 342 340 338 336 332 326 321 314 310 308
110 112 218 307 358 337 269 300 289 222 210 173 144 280 266 211 230 238 156 143 154 149 177 192 195 198 195 197 197 200 205 199 197 200 199 197 194 192 190 187 183 181 182 184 183 184 190 196 197 196 195 192 182 170 163 160 151 121 85 65 47 37 33 31 27 21 20 19 15 14 13 11 8 6 4 2 1 359 357 356 354 352 349 345 344 342 341 340 339 337 335 332 328 324 318 315 311
133 88 101 318 358 342 260 60 49 156 190 173 141 282 250 218 236 240 129 155 143 163 202 197 202 204 201 203 201 208 206 202 204 206 204 199 196 194 191 189 187 185 183 183 186 188 194 197 198 198 196 194 186 176 175 178 183 170 105 59 42 25 27 25 19 15 15 13 8 7 6 4 2 0 1 359 359 356 354 353 351 349 347 344 342 340 338 337 336 334 333 331 328 325 320 317 314
115 22 68 31 3 291 288 49 123 162 190 149 136 269 263 245 249 236 167 172 162 192 215 199 207 207 205 208 206 213 209 209 211 207 205 202 199 196 192 190 188 189 187 186 189 192 196 197 199 200 197 196 190 185 188 195 205 200 210 23 28 16 21 19 11 9 8 5 360 359 358 357 354 355 357 357 356 354 352 350 349 347 344 342 340 338 336 334 332 331 331 330 327 325 320 317 313
33 333 306 340 176 268 298 272 170 195 297 100 150 245 274 269 265 247 175 178 185 208 218 206 212 210 210 211 208 217 216 215 216 213 209 205 201 197 194 191 188 191 192 191 192 193 197 199 200 201 199 198 194 194 199 205 214 215 224 307 4 5 11 8 0 356 357 356 351 350 350 348 348 350 353 354 354 352 349 347 345 343 342 339 336 335 334 331 330 328 328 327 323 320 317 316 313
2 46 254 272 239 282 311 289 210 220 138 222 212 236 281 273 272 293 186 189 203 222 228 217 216 215 211 212 212 215 218 216 218 218 213 207 203 198 194 193 191 193 195 195 195 195 198 199 200 201 200 200 199 200 206 213 219 221 232 274 337 350 358 354 343 340 346 347 343 342 342 342 343 347 351 352 351 349 346 343 341 340 339 336 334 333 331 330 328 325 321 319 316 314 312 311 309
322 16 252 251 234 258 301 298 271 188 165 218 227 233 257 261 261 227 196 200 208 226 232 222 219 218 212 213 216 216 215 217 217 216 213 207 203 199 195 195 194 195 196 198 199 200 200 199 199 200 201 201 202 205 210 219 221 223 238 257 313 336 342 338 327 325 336 337 336 336 336 338 340 345 349 348 347 345 342 340 338 337 336 334 332 330 329 328 327 322 315 311 310 307 304 303 303
226 237 248 275 261 237 252 268 264 129 195 228 205 232 253 263 268 244 203 198 215 229 231 228 225 218 215 214 217 219 218 222 220 213 209 207 204 199 195 194 196 197 196 198 200 200 199 199 199 199 202 203 204 208 213 220 224 229 242 259 296 328 328 322 318 320 328 328 329 331 331 334 338 343 345 344 343 340 339 337 335 334 333 331 329 328 329 328 325 320 313 309 308 302 297 296 297
185 204 198 230 256 258 235 236 253 162 241 255 226 235 254 262 268 263 229 195 224 240 235 236 236 221 214 217 221 221 221 226 221 211 208 207 205 199 195 195 197 197 197 198 198 198 198 197 198 199 202 203 205 210 214 219 225 232 245 263 284 323 321 307 311 317 320 320 323 327 328 332 337 340 342 341 339 337 336 334 332 332 331 329 327 326 325 323 320 316 310 307 305 300 293 288 289
140 150 181 221 233 266 254 229 281 158 210 264 244 244 259 260 264 266 252 196 232 245 237 239 237 222 214 217 223 221 224 228 214 209 209 208 206 201 197 196 196 197 197 198 196 197 198 196 197 199 200 203 207 210 214 218 224 236 253 270 292 320 312 299 306 312 313 317 320 323 326 329 333 338 339 338 337 335 333 331 330 330 328 327 324 322 320 318 315 310 306 303 297 294 289 280 283
115 152 199 253 225 253 269 270 316 339 176 267 287 282 268 262 261 263 251 219 240 238 226 239 236 222 218 220 226 224 226 224 198 206 208 205 205 201 198 196 195 195 195 196 198 198 196 196 198 199 200 204 207 210 213 218 225 238 255 275 300 315 305 298 307 310 310 315 320 320 322 326 331 337 338 337 335 333 331 330 328 327 326 325 321 318 316 315 312 307 302 300 293 287 284 282 287
113 134 169 262 237 265 296 346 356 1 179 273 306 296 275 268 261 256 242 232 249 240 214 234 234 219 222 222 226 224 222 218 203 206 204 202 203 200 198 198 197 197 196 197 199 198 195 195 197 197 201 204 205 209 213 219 228 240 258 278 300 307 301 297 303 306 310 317 321 320 321 326 331 336 337 335 333 331 330 328 327 326 324 322 318 315 313 312 310 305 300 297 296 292 286 283 283
147 145 171 247 243 258 286 308 336 245 191 282 293 282 273 269 259 255 247 237 254 254 225 236 230 217 225 224 222 219 217 217 211 208 203 200 201 200 200 199 198 197 196 197 198 196 196 197 197 197 200 203 205 209 213 219 227 240 260 281 294 295 294 293 297 302 309 316 319 319 323 327 331 334 335 333 331 329 328 326 324 322 320 319 316 311 308 306 304 301 296 291 292 293 291 288 279
239 195 203 234 235 220 237 287 326 317 354 334 309 292 276 262 245 253 273 278 265 258 243 246 234 224 233 231 226 220 217 216 211 209 203 198 201 202 202 200 198 197 197 198 198 197 198 199 199 197 199 202 204 208 211 217 225 236 252 272 283 285 287 286 288 297 306 309 311 316 320 324 328 332 332 331 329 327 325 323 320 317 315 314 310 305 301 299 295 291 288 284 282 283 290 293 287
292 232 216 223 230 231 251 353 4 358 335 334 2 321 288 278 222 255 289 315 262 256 254 251 238 226 229 234 232 223 221 219 214 211 203 201 204 203 203 201 199 199 200 200 199 200 201 200 198 196 198 201 203 207 210 215 223 233 244 256 265 272 280 281 282 292 301 305 307 313 318 323 327 329 330 328 327 324 321 319 316 312 311 309 306 301 296 293 289 285 282 279 278 278 284 289 287
286 251 211 207 200 188 165 40 30 317 263 302 45 323 279 278 188 241 254 255 258 263 266 260 246 225 219 228 232 223 222 218 215 212 203 203 203 201 203 203 201 201 200 200 200 201 201 199 197 197 198 200 202 205 210 216 224 234 246 254 261 266 275 284 292 297 303 308 310 313 318 324 328 328 328 327 326 323 320 318 315 311 309 306 304 298 293 290 286 283 282 279 280 280 279 279 282
238 244 130 138 142 153 161 115 139 236 274 319 310 180 274 277 229 230 233 247 270 276 269 268 254 230 222 227 231 223 220 214 209 210 206 205 203 202 204 203 202 202 199 198 199 201 200 197 197 196 197 200 202 205 210 219 226 235 246 253 260 264 272 287 298 301 305 310 311 312 316 323 327 327 327 327 325 322 319 317 314 310 307 304 301 295 290 289 286 284 284 281 280 279 274 272 276
236 195 116 117 126 138 135 117 179 270 21 303 249 158 266 274 242 285 270 230 263 267 260 262 255 235 226 228 231 226 221 212 207 210 208 207 205 206 206 204 204 203 199 198 199 200 198 197 196 195 197 200 203 207 212 220 228 237 245 250 260 267 275 287 296 299 303 307 308 310 314 320 325 326 325 325 322 320 317 314 311 307 304 301 298 292 288 288 287 285 285 282 279 276 272 269 271
186 139 98 75 73 79 80 114 152 35 334 258 237 166 222 274 217 121 59 198 242 253 254 257 253 238 228 229 232 228 222 213 210 213 211 210 209 208 206 204 204 202 199 199 200 199 198 196 194 194 197 200 203 209 213 220 228 237 245 250 261 271 280 289 296 299 303 307 305 307 314 320 324 324 323 321 319 317 313 310 307 304 301 299 296 291 289 289 288 285 284 281 277 275 272 267 266
136 112 68 50 42 51 50 58 94 30 267 256 232 180 190 272 237 154 179 200 209 222 245 258 256 245 230 227 232 224 214 212 211 216 215 211 210 207 204 203 203 200 199 199 199 199 197 194 194 195 198 201 205 212 216 222 229 237 246 251 260 273 283 290 295 299 307 309 304 308 318 322 323 321 319 318 316 314 311 307 304 301 299 298 296 294 291 290 289 287 284 281 277 273 271 268 265
109 92 67 38 342 10 20 356 55 256 256 257 237 181 187 243 245 183 225 242 220 208 222 238 237 240 231 219 227 221 211 214 211 212 210 200 200 199 199 201 200 197 198 199 198 197 195 194 194 194 196 201 207 213 219 224 231 238 245 251 260 273 282 287 290 296 305 305 303 313 322 324 322 319 317 314 312 311 308 305 303 301 300 298 297 296 294 292 290 287 284 280 277 273 269 267 266
98 94 82 51 325 350 343 305 131 228 257 251 147 154 217 246 247 239 249 256 245 227 221 221 220 234 236 214 214 217 211 212 210 206 200 194 194 194 196 197 196 195 198 198 196 194 193 193 194 194 196 203 208 214 222 227 233 239 244 252 263 274 282 287 289 295 301 300 303 316 322 320 317 314 313 310 308 306 303 301 301 300 300 299 299 297 295 293 290 285 282 279 275 273 269 265 264
156 143 126 140 151 52 273 270 276 268 270 269 132 146 248 270 259 227 226 230 232 230 228 223 226 238 242 228 206 210 218 214 209 203 198 200 200 196 197 196 195 197 198 196 194 192 192 192 194 196 197 202 208 215 222 228 233 239 244 253 266 276 284 290 291 298 302 302 309 319 319 314 310 309 308 306 305 304 300 299 299 298 298 299 298 296 294 291 287 283 280 278 274 271 269 267 265
177 156 141 160 157 172 229 235 249 274 289 293 238 183 224 259 266 218 221 230 231 233 232 223 243 250 243 261 249 225 229 218 207 209 205 206 201 195 197 197 197 198 196 194 192 190 191 192 193 196 198 201 208 215 222 228 233 238 245 255 268 279 288 293 297 304 306 308 317 319 316 312 308 307 306 305 305 304 301 300 299 299 298 297 294 292 290 287 285 281 278 276 273 271 270 269 269
207 131 121 180 179 173 223 220 193 251 317 291 232 223 227 218 273 250 230 240 230 234 238 230 251 253 237 257 259 243 238 222 206 212 213 208 200 196 198 198 198 197 194 193 191 190 191 191 193 198 201 203 209 215 221 228 233 238 247 258 271 283 290 296 303 310 311 315 321 318 314 311 308 307 307 306 306 305 304 303 302 302 301 297 293 289 287 285 284 280 278 276 274 273 272 271 272
164 147 174 207 181 138 160 265 38 66 290 274 231 257 274 280 274 239 174 206 228 233 238 232 244 249 232 243 250 243 241 227 211 214 212 202 195 198 199 196 195 194 193 193 191 190 190 190 192 197 201 204 208 215 221 226 232 239 249 261 277 289 294 302 310 315 316 320 321 317 314 311 309 308 307 307 308 307 307 306 306 305 303 299 295 290 288 286 283 280 277 276 278 278 276 275 275
133 190 208 177 123 101 109 253 345 25 253 272 274 265 278 281 277 263 131 214 237 238 233 233 244 249 239 241 245 244 242 228 217 217 210 201 198 200 199 196 196 195 193 193 191 190 191 191 193 196 200 203 207 214 220 225 231 240 254 267 283 293 299 310 315 315 318 321 321 318 314 311 311 310 309 309 309 308 309 310 308 307 305 302 298 293 291 287 283 281 279 279 281 280 278 278 278
126 198 197 115 143 165 113 166 235 251 236 278 280 273 274 264 251 160 178 214 228 236 234 233 242 242 239 241 243 245 242 225 220 216 207 206 203 200 197 195 195 194 192 192 189 188 190 191 193 197 201 203 206 212 218 223 231 242 258 273 289 299 307 317 317 316 319 320 320 317 314 313 312 312 311 310 310 310 312 311 309 307 305 302 298 295 293 289 284 281 281 282 283 282 280 280 280
68 68 90 59 160 167 168 169 178 204 196 269 284 284 276 254 189 164 203 215 215 225 228 225 231 234 231 231 237 241 234 222 221 216 210 211 206 200 196 192 190 190 189 189 187 186 187 188 190 195 198 200 205 211 216 221 229 244 263 279 296 306 315 320 316 316 320 321 319 316 314 314 313 312 312 312 312 311 310 309 307 305 302 299 296 295 293 290 286 283 282 284 286 284 281 280 280
159 163 173 209 158 121 218 230 125 140 180 228 274 280 274 252 141 164 200 208 207 210 215 217 224 232 229 224 228 231 228 224 221 217 214 211 203 195 192 190 187 185 185 186 185 184 184 186 189 193 195 198 204 208 214 221 228 246 267 283 299 312 319 316 313 319 322 321 319 317 316 315 314 314 314 313 312 311 309 308 305 302 300 297 295 294 293 291 289 288 287 286 287 285 281 281 282
171 185 188 189 178 132 171 251 225 149 192 203 187 266 271 253 119 162 186 187 208 205 206 216 217 224 227 225 225 225 225 226 221 219 214 204 194 185 182 182 180 180 183 184 183 181 181 184 188 191 195 198 203 205 210 219 229 247 271 289 303 315 316 312 315 323 324 321 320 320 319 318 316 316 316 315 315 314 312 308 303 299 298 296 294 293 294 293 292 292 290 288 288 285 282 281 281
Height
813 813 813 814 814 814 816 817 828 839 842 855 862 859 854 851 853 851 851 852 850 854 855 853 853 852 852 850 852 858 862 859 858 863 860 863 868 865 866 864 864 863 862 862 860 860 859 858 857 856 855 855 854 853 853 852 851 851 851 850 850 850 850 850 850 849 849 849 849 848 848 848 848 848 847 847 847 847 848 847 848 848 848 848 848 848 848 848 848 848 848 848 848 848 848 847 847
813 814 814 814 814 814 820 822 833 847 846 855 861 857 853 851 853 847 847 850 850 854 855 854 855 855 855 854 855 857 861 862 862 862 862 865 865 865 865 863 863 862 861 861 860 860 858 858 858 857 856 855 854 854 853 852 851 851 851 850 850 850 850 850 849 849 849 849 849 848 848 848 848 847 847 847 847 847 847 847 847 847 847 847 847 847 847 847 847 847 847 847 847 847 847 846 846
813 814 814 814 815 816 822 824 835 849 847 851 853 852 852 848 847 843 846 849 852 855 855 854 854 856 857 855 856 855 859 863 862 863 864 864 865 865 864 863 862 861 861 860 860 859 858 858 857 857 856 855 854 853 853 852 852 851 850 850 850 850 849 849 849 849 849 849 848 848 848 848 848 847 847 847 847 847 846 846 846 846 846 846 846 846 846 846 846 846 846 846 846 846 846 845 845
814 814 814 814 818 819 823 829 838 843 844 854 850 844 847 843 843 846 849 850 853 854 853 854 854 858 857 854 857 858 860 863 862 862 863 864 864 864 863 863 862 861 861 860 860 859 858 858 857 857 856 855 854 853 853 852 852 851 851 850 850 850 849 849 849 848 848 848 848 848 848 848 848 847 847 847 847 847 846 846 845 845 845 845 845 845 845 845 845 845 845 845 845 845 845 844 844
813 814 815 814 819 822 828 840 846 840 839 848 843 839 843 843 847 850 852 852 853 853 853 853 854 859 858 858 860 858 859 862 862 862 862 863 864 864 863 862 861 861 860 860 859 858 858 858 857 856 856 855 854 853 853 852 852 851 851 850 850 849 849 849 848 848 848 848 848 847 847 847 847 846 846 846 846 846 846 845 845 845 844 844 844 845 844 844 844 844 844 844 843 843 843 843 843
813 814 814 814 821 823 828 839 843 838 836 839 835 835 840 843 848 849 852 853 853 853 853 852 852 856 858 861 862 859 860 861 861 862 862 863 864 863 863 862 861 861 860 860 859 858 858 858 857 856 856 855 854 853 853 852 851 851 850 850 850 849 849 849 848 848 848 847 847 847 847 847 846 846 845 845 845 845 845 844 844 844 844 843 843 843 843 843 843 843 843 842 842 842 841 842 842
813 814 817 818 823 826 829 835 838 837 837 840 834 832 838 843 847 848 851 852 851 852 852 853 852 852 856 860 860 861 860 860 861 861 862 862 863 863 862 862 861 861 860 860 859 858 858 858 857 856 856 854 854 853 853 852 851 851 850 850 850 849 849 849 848 848 848 847 847 846 846 846 846 845 845 844 844 844 843 843 843 843 843 843 842 841 841 842 842 842 842 841 841 840 840 840 840
812 815 821 821 828 834 837 838 840 840 840 843 839 836 838 841 845 846 847 848 848 850 851 853 853 848 853 861 859 860 861 860 861 861 862 862 863 862 862 862 861 861 860 860 859 858 858 858 857 856 856 854 854 853 853 852 852 851 851 851 850 849 849 849 848 848 848 847 847 846 846 845 845 845 844 844 843 843 843 842 842 842 842 841 841 840 840 840 840 840 840 840 839 839 838 838 838
812 816 822 824 830 838 842 843 843 843 841 841 839 839 840 841 844 843 845 846 846 848 850 852 852 847 852 860 859 861 861 860 861 861 862 862 862 862 862 862 861 861 860 860 859 858 857 857 857 856 855 855 854 853 853 852 852 851 851 850 850 850 849 849 848 848 848 847 847 846 846 845 845 844 844 843 843 843 842 842 841 841 841 840 840 840 839 839 839 839 838 838 837 837 837 837 836
815 818 823 827 833 839 842 843 843 841 839 838 835 837 840 843 843 842 843 844 845 846 849 852 851 849 852 858 860 860 860 860 861 861 861 861 861 862 862 862 861 861 860 859 858 858 857 857 857 856 855 854 854 853 852 852 852 851 851 850 850 849 849 849 848 848 847 847 847 846 845 845 844 844 843 843 842 842 841 841 841 840 840 839 839 839 839 838 838 838 837 836 836 836 835 835 835
818 821 824 830 835 837 837 836 839 838 837 838 835 834 838 842 841 843 844 843 846 845 849 851 847 851 855 857 859 859 859 860 860 860 861 860 861 861 861 861 861 860 859 859 858 858 858 857 856 855 855 854 853 853 852 852 851 851 851 850 850 849 849 848 848 847 847 846 846 845 845 844 844 843 843 842 842 841 841 840 840 839 839 838 838 838 837 837 837 836 836 835 835 834 834 834 833
819 825 826 830 835 835 837 835 835 836 836 836 832 833 838 842 839 839 842 840 845 846 847 847 843 848 854 858 858 858 859 859 859 859 860 860 860 860 860 860 860 860 859 859 858 858 857 856 856 855 854 854 853 852 852 852 851 851 850 850 849 849 849 848 848 847 847 846 846 845 845 844 843 843 842 842 841 840 840 839 839 838 838 837 837 836 836 835 835 835 834 834 833 833 832 832 831
820 827 824 830 844 844 842 839 837 839 836 832 829 834 839 838 834 834 839 840 844 845 843 844 845 845 850 857 857 857 858 856 858 858 859 859 859 859 859 860 859 859 859 858 858 857 857 856 855 854 854 853 853 852 852 851 851 851 850 850 849 849 848 848 848 847 847 846 846 845 844 844 843 842 842 841 840 840 839 838 838 837 837 836 836 835 834 834 833 833 833 832 832 831 831 830 829
819 826 822 834 855 850 843 839 839 841 833 828 829 835 838 836 835 835 837 839 843 843 840 844 846 844 847 855 855 854 854 854 857 857 858 858 858 859 859 859 859 858 858 858 858 857 856 855 855 854 853 853 852 852 851 851 851 850 850 850 849 849 848 848 847 847 846 846 845 845 844 843 842 842 841 840 840 839 838 838 837 836 836 835 834 834 833 832 832 831 831 830 830 829 828 828 827
820 826 827 837 852 847 843 840 840 841 830 827 832 835 836 838 840 839 836 835 839 843 842 844 845 841 842 844 845 847 849 852 855 856 857 857 858 859 859 859 858 858 857 857 857 856 856 855 854 854 853 852 852 851 851 851 850 850 850 849 849 849 848 848 847 847 846 845 845 844 844 843 842 841 841 840 839 838 837 836 836 835 834 834 833 832 832 831 830 829 829 828 827 827 826 825 825
821 824 828 835 843 843 841 842 845 843 830 828 834 834 832 838 842 839 839 838 839 844 843 843 844 841 841 839 838 842 846 850 853 855 856 857 858 858 859 859 857 857 857 857 856 855 855 854 854 853 852 852 851 851 850 850 850 849 849 849 849 848 848 847 847 846 846 845 844 844 843 842 842 841 840 839 839 838 837 836 835 834 833 832 831 831 830 829 829 828 827 826 825 824 824 823 823
820 820 827 832 840 841 836 840 841 832 825 830 835 832 829 836 841 840 842 841 840 843 844 844 844 843 842 841 839 841 845 849 852 853 855 856 857 858 858 858 857 857 856 856 855 854 854 853 853 852 852 851 851 850 850 849 849 849 848 848 848 847 847 846 846 845 845 844 843 843 842 841 840 839 839 838 837 837 836 835 834 833 832 831 830 829 828 828 827 826 825 824 823 822 821 820 820
820 825 830 830 836 835 828 830 831 825 821 827 832 830 828 831 838 840 840 841 842 844 844 844 843 843 842 841 841 842 844 848 850 852 853 855 856 857 857 856 856 856 856 855 854 854 853 852 852 852 851 851 850 850 849 849 848 848 848 847 847 847 846 846 845 845 844 843 842 842 841 840 839 838 838 837 836 835 834 834 833 832 831 830 829 828 827 826 825 824 823 822 821 820 819 818 817
823 830 830 827 830 827 824 824 825 825 821 825 831 831 829 828 834 838 836 838 843 843 842 844 842 841 841 841 841 842 843 845 847 849 850 852 853 854 854 854 854 854 854 853 853 852 852 852 851 851 851 850 850 849 848 848 848 848 847 847 847 846 846 845 845 844 844 843 842 841 841 840 839 838 838 836 835 834 833 832 831 830 829 828 827 826 825 824 823 822 821 820 819 818 817 816 815
825 829 825 824 825 823 825 825 822 823 824 825 829 832 832 830 834 836 834 837 843 838 835 838 837 836 839 841 840 841 842 843 845 846 847 849 850 850 850 850 851 851 851 851 851 851 851 851 850 850 850 849 849 848 848 848 848 847 847 847 846 846 845 845 844 844 843 842 841 841 840 839 839 838 837 836 835 834 833 832 830 829 828 827 825 824 823 822 821 820 819 818 817 816 815 814 814
825 826 820 823 827 822 821 823 822 824 828 825 827 832 831 832 835 834 833 835 838 833 826 825 823 828 836 839 839 839 840 841 843 843 844 846 846 847 847 847 848 849 850 850 850 850 850 849 848 849 849 848 848 848 848 847 847 847 846 846 845 845 845 844 844 843 842 841 841 840 839 838 838 837 836 835 834 833 832 831 830 828 827 826 824 823 821 820 819 818 816 816 815 814 813 813 812
823 824 823 827 828 821 818 824 824 825 828 826 827 828 827 832 834 832 831 825 822 822 819 819 819 824 830 833 836 838 839 839 840 841 841 842 843 844 845 846 847 848 848 848 848 848 848 847 847 848 848 847 847 847 847 846 846 846 845 845 845 844 844 844 843 842 842 841 840 840 839 838 837 836 835 834 833 832 831 830 829 828 827 825 824 822 821 819 818 816 815 814 813 812 811 811 810
822 823 826 828 828 820 820 824 823 825 824 821 825 825 828 831 828 830 830 817 812 817 818 819 821 824 827 829 833 834 836 836 836 837 838 839 841 842 843 845 845 845 846 846 846 846 846 846 846 847 847 846 846 845 845 845 845 844 844 844 843 843 843 843 842 842 842 841 840 839 839 838 837 836 835 833 832 831 830 829 828 826 826 824 823 822 820 819 817 816 814 813 812 810 809 808 808
822 822 823 825 828 821 820 825 824 825 821 821 827 826 826 825 824 831 826 813 814 819 820 820 821 824 828 829 831 831 831 832 833 835 836 838 839 840 842 843 843 843 844 844 844 845 845 844 844 845 845 845 845 845 845 844 844 843 843 843 843 843 843 842 842 842 841 841 840 839 839 837 836 835 834 833 832 831 830 828 827 825 824 823 822 821 819 818 817 815 813 812 810 809 808 806 805
821 823 823 825 826 820 822 826 824 825 823 827 829 823 823 825 828 829 817 810 816 819 820 821 822 825 828 828 829 830 831 832 833 835 836 837 838 839 840 841 841 841 841 842 843 843 843 842 843 844 844 844 844 844 844 844 843 843 843 843 843 843 842 842 842 842 842 841 840 839 838 837 836 835 834 833 831 830 828 827 826 824 823 822 820 819 818 816 815 813 812 810 809 808 806 805 804
821 821 822 823 822 820 823 823 822 826 826 828 825 820 824 829 831 819 806 809 815 818 820 821 823 824 825 826 827 828 829 830 831 832 834 835 837 837 838 838 839 839 840 840 841 841 841 841 842 843 843 844 844 844 844 844 843 843 843 843 843 843 842 842 842 841 841 840 839 838 837 836 834 833 832 831 830 828 827 826 825 823 822 820 819 818 817 815 813 811 810 809 807 806 805 803 802
821 823 823 823 823 823 825 821 823 826 825 827 823 821 825 831 832 811 800 812 815 816 820 821 822 822 823 824 825 826 827 827 828 830 832 833 833 833 834 836 836 837 838 839 840 839 839 840 841 842 842 843 843 843 843 843 843 843 843 843 842 842 842 841 841 841 840 839 838 837 836 835 833 832 831 830 829 827 826 825 824 822 821 820 819 817 815 814 812 810 809 807 806 804 803 802 800
823 824 823 824 825 824 825 823 825 825 823 826 824 823 827 832 828 806 800 815 815 814 818 821 821 820 822 822 823 825 825 825 826 828 827 827 828 830 831 832 834 835 836 837 838 838 838 839 840 841 841 842 842 842 842 842 842 842 842 842 842 841 841 840 840 839 839 838 837 836 835 834 832 831 830 829 827 826 825 824 823 822 820 819 818 816 814 813 811 809 808 806 804 803 801 800 798
825 825 820 821 823 821 824 824 826 826 822 824 826 824 823 825 815 799 806 817 816 815 816 819 820 819 821 821 822 823 822 824 825 824 822 823 825 827 829 831 832 833 835 836 836 836 837 838 839 839 840 840 841 840 841 841 842 842 841 841 840 840 840 839 839 838 837 837 836 835 834 833 832 830 829 827 826 825 824 823 822 821 820 818 817 815 813 811 809 807 806 804 802 801 799 798 796
824 826 824 822 821 819 823 827 828 827 823 824 826 820 810 809 803 800 813 817 815 816 815 818 820 819 820 820 821 821 821 821 820 820 820 823 824 826 828 829 831 832 833 834 834 835 836 837 838 838 839 839 839 839 839 840 840 840 840 840 839 839 839 838 838 837 836 836 835 834 833 832 831 829 828 826 825 823 822 821 820 819 818 817 815 814 812 810 808 806 804 802 800 799 797 796 794
824 825 828 832 826 817 821 828 827 823 824 825 826 823 805 796 797 801 813 815 812 811 811 817 818 818 818 818 819 817 818 817 816 818 820 821 823 824 826 827 829 830 831 831 832 834 834 835 836 837 837 837 837 837 838 839 839 839 839 838 838 838 838 837 837 836 835 834 834 833 832 831 830 828 826 824 822 821 821 820 819 818 816 815 814 812 811 809 807 805 804 801 799 798 796 794 793
828 822 823 835 831 821 821 826 827 820 823 827 825 823 807 795 795 803 815 816 812 808 808 815 815 816 816 815 817 815 815 816 816 818 817 819 821 822 824 825 827 828 829 829 830 832 833 834 834 835 835 835 836 836 837 838 838 838 838 838 837 837 836 836 836 835 834 833 832 831 831 830 829 827 825 822 820 819 819 818 817 816 815 814 812 811 809 807 806 804 803 801 799 797 794 792 790
831 828 820 826 827 825 822 822 829 825 823 826 823 819 806 794 796 808 817 816 814 809 807 812 812 813 813 813 813 813 814 814 815 814 814 816 818 820 822 823 825 825 827 828 829 830 831 832 833 834 834 834 835 835 836 837 837 837 836 836 836 835 835 834 834 833 832 831 830 830 829 828 827 825 823 820 818 817 817 816 816 815 813 812 810 809 808 806 805 803 801 801 799 796 794 791 789
827 833 826 825 827 827 822 817 825 828 824 822 823 821 806 792 794 806 813 815 815 810 805 807 808 809 809 810 811 811 811 810 809 808 810 813 815 817 819 821 823 824 825 826 827 828 829 830 831 832 832 833 834 834 835 836 836 836 835 835 834 833 833 832 832 832 831 830 829 828 827 826 824 822 820 817 816 816 815 815 814 813 812 810 809 807 806 804 803 801 799 798 798 796 793 791 788
818 824 823 825 828 829 825 819 821 824 823 822 824 822 809 795 793 798 807 814 811 803 801 802 802 805 806 808 808 807 808 805 802 804 807 810 812 815 817 819 820 821 823 824 826 827 827 829 829 830 831 831 833 833 834 834 834 833 832 832 832 831 831 830 830 829 828 828 827 826 825 824 822 819 818 815 814 814 813 813 812 811 810 808 806 805 803 802 800 799 797 795 795 794 792 790 788
814 819 821 822 823 824 822 820 822 825 822 820 821 818 807 799 794 791 798 810 807 797 799 800 799 801 804 805 804 803 803 798 798 803 806 807 809 812 814 816 818 819 821 821 823 824 825 826 827 828 829 830 831 831 832 832 831 831 830 830 829 829 828 828 828 827 826 826 825 824 822 821 819 817 815 813 812 812 811 811 810 809 807 806 804 802 801 799 798 797 795 794 792 791 790 789 787
819 822 824 824 826 822 817 818 825 828 822 813 813 815 808 800 795 790 792 803 803 795 797 797 794 796 798 800 798 797 796 794 798 802 803 805 807 810 811 813 815 816 817 818 819 821 822 823 824 825 827 828 828 829 829 829 828 828 827 827 826 826 826 826 825 824 824 823 822 821 820 819 817 815 812 810 810 809 809 808 807 806 804 803 801 800 799 798 797 796 794 793 791 789 788 787 786
821 822 824 826 831 823 815 821 827 829 825 814 812 815 806 797 794 789 791 795 787 784 791 789 786 791 793 793 792 791 792 793 798 800 800 803 804 806 808 809 810 811 812 814 815 817 819 820 821 823 824 825 825 826 826 826 825 825 824 824 824 823 824 824 823 822 821 820 819 819 818 817 814 812 809 808 807 806 806 805 804 803 801 800 799 797 797 795 795 794 793 792 790 788 785 784 784
822 826 828 825 828 823 817 826 831 830 827 816 814 816 800 788 789 782 781 782 771 771 780 778 777 784 786 785 785 786 790 792 793 794 796 798 799 802 804 804 805 806 808 810 811 813 815 816 818 819 820 822 822 823 823 823 823 823 822 822 821 821 822 821 821 820 819 818 817 817 816 814 812 809 807 805 804 804 803 802 801 800 799 798 796 794 794 793 793 793 793 791 789 786 782 781 781
822 825 825 820 823 822 813 821 830 829 829 823 820 816 794 779 779 773 771 772 766 767 771 771 773 776 774 775 778 781 783 785 786 788 790 793 796 797 798 799 800 802 804 805 807 809 811 813 814 816 817 819 820 820 821 821 821 820 820 820 819 819 819 819 818 817 816 815 815 814 813 812 809 807 805 803 802 801 801 800 799 798 797 796 795 793 791 791 791 791 791 791 789 784 778 776 777
822 824 821 815 816 817 815 822 828 825 829 830 821 796 771 769 772 764 768 774 769 767 767 768 770 769 769 771 773 774 775 777 779 781 785 788 789 790 792 794 796 798 799 800 803 805 807 809 811 813 815 816 817 818 818 818 818 818 818 817 817 817 817 816 816 815 814 813 812 811 810 808 806 804 803 801 800 799 798 798 797 796 795 794 793 791 789 789 789 789 789 788 788 784 777 773 772
820 817 814 812 811 814 821 826 825 820 820 828 825 793 762 765 770 761 766 771 765 766 764 761 763 767 770 769 767 768 769 771 773 775 779 782 783 786 789 791 792 792 794 796 799 802 804 806 809 811 812 813 814 814 815 815 815 815 815 814 815 814 814 813 813 812 811 809 808 808 807 805 803 801 800 798 797 796 795 795 794 793 792 791 790 789 787 786 786 785 786 785 783 782 778 772 767
818 814 815 818 817 819 824 825 823 819 819 826 830 813 782 764 759 755 760 760 755 759 758 751 755 762 764 764 761 763 765 766 769 771 774 776 778 781 782 783 785 786 788 792 796 798 801 803 805 807 809 810 811 811 812 812 812 812 812 811 812 812 811 810 809 809 807 806 805 804 803 801 800 799 797 796 795 794 793 792 791 790 789 788 787 785 783 783 782 781 781 780 778 778 777 772 765
814 821 823 820 820 821 822 823 823 824 830 831 825 825 809 777 759 755 752 753 753 755 752 745 747 752 756 757 756 757 758 760 764 766 767 769 771 773 773 776 779 781 785 789 792 794 797 800 802 804 806 807 808 808 809 809 809 809 809 809 809 808 808 807 806 805 804 803 801 800 799 797 797 796 794 793 792 791 790 788 788 786 785 784 783 782 780 778 778 776 775 775 774 773 772 769 764
815 831 831 824 823 824 825 825 826 832 838 829 818 829 819 777 761 766 761 760 758 751 743 736 737 743 747 750 751 751 752 754 758 759 760 763 763 765 767 772 776 779 782 785 787 791 794 797 798 800 802 803 804 805 805 806 806 806 806 806 806 805 804 804 803 802 801 799 798 796 795 794 793 792 791 790 789 788 787 785 784 783 782 781 780 778 776 774 773 770 769 769 769 768 767 765 761
822 836 832 829 831 831 833 829 827 835 834 816 809 823 812 765 748 766 772 767 757 744 737 732 733 740 742 744 745 746 749 751 753 753 754 756 758 761 766 770 774 776 780 783 785 789 791 793 795 796 798 799 800 801 802 802 803 803 803 803 802 802 801 800 799 799 797 796 794 793 792 790 789 788 787 786 785 784 783 782 781 779 778 777 775 773 771 769 767 765 763 763 762 762 760 760 757
828 828 820 823 831 835 840 837 832 830 813 796 796 806 805 772 746 753 758 750 741 733 731 730 730 734 737 740 741 743 746 747 748 749 750 754 757 761 766 768 771 774 778 781 783 785 787 789 791 793 795 796 797 798 798 799 799 799 800 799 799 799 798 797 796 795 794 792 791 789 788 786 785 784 784 783 782 781 780 779 777 776 774 772 770 769 766 764 761 759 758 756 756 755 753 753 750
825 817 812 815 822 827 831 832 833 821 792 785 803 812 808 779 746 743 745 738 735 728 721 719 719 722 726 732 737 740 742 743 744 747 748 753 756 759 762 764 768 772 775 777 778 781 784 786 787 789 791 793 793 795 795 796 796 796 797 797 796 796 795 794 794 792 791 790 788 786 783 782 781 781 781 780 779 778 777 775 773 771 770 768 766 764 761 759 757 754 752 750 749 748 747 746 743
820 814 816 818 821 822 817 815 821 813 789 793 817 817 799 767 737 740 743 736 734 729 721 716 713 714 717 725 733 736 740 741 741 744 746 749 751 753 756 759 764 767 769 772 775 778 780 782 784 785 787 789 790 791 792 793 793 793 794 794 793 793 792 791 791 789 788 787 785 782 780 779 778 777 777 776 776 775 774 771 769 767 765 762 760 758 756 754 752 749 747 744 742 741 740 739 736
818 811 813 814 821 824 813 808 813 803 786 799 821 810 781 751 728 729 730 723 721 721 723 722 717 715 717 723 732 734 737 739 739 741 742 744 745 748 751 755 758 761 764 769 771 774 777 778 780 782 784 786 787 788 789 790 790 791 791 791 790 789 789 788 788 786 785 784 782 779 778 777 776 775 773 772 771 771 770 768 766 763 760 758 756 753 751 749 747 744 741 738 736 734 733 731 729
818 810 811 807 807 807 797 793 794 784 779 799 817 798 760 733 717 716 719 718 718 716 719 724 723 721 723 727 731 732 733 736 738 738 738 739 740 744 748 751 754 757 761 765 768 770 773 774 776 779 781 783 784 785 786 787 788 788 788 788 787 786 786 785 784 783 781 780 778 776 776 775 774 772 770 768 767 766 764 763 761 758 756 754 752 749 746 744 742 739 736 733 729 728 727 724 723
818 817 813 806 800 794 793 801 805 803 798 795 796 775 740 722 717 718 723 722 717 714 716 722 720 718 723 726 725 727 729 732 735 735 734 736 738 741 744 747 750 754 758 761 763 765 768 771 773 775 777 779 781 782 783 784 785 785 785 785 784 783 783 782 780 779 778 776 775 774 774 773 771 769 767 764 763 761 759 757 755 753 750 749 747 744 742 739 737 734 730 727 724 722 721 717 716
813 818 806 805 805 795 794 809 824 829 809 778 770 758 729 719 717 713 719 717 710 713 717 718 715 714 720 722 720 722 724 726 730 730 731 733 736 738 740 742 746 749 752 755 758 760 763 766 769 771 774 776 777 778 780 781 781 782 782 781 781 780 780 779 777 776 775 773 772 772 771 770 769 767 764 761 758 756 754 752 749 746 744 743 741 739 737 734 732 729 725 722 719 718 716 711 710
803 804 796 801 808 803 800 804 810 817 806 775 759 750 726 715 716 715 720 716 707 710 714 713 713 715 717 717 716 718 718 722 726 727 729 731 732 734 735 737 740 743 747 750 753 756 759 762 765 767 770 771 774 775 776 778 778 778 779 778 778 777 776 776 774 773 772 770 770 770 769 767 765 764 761 758 755 752 749 747 744 741 739 737 735 733 731 729 727 723 720 717 714 712 710 705 704
798 796 797 797 795 798 804 807 797 796 802 779 748 741 724 702 703 710 712 709 704 706 710 713 713 712 712 713 713 714 716 720 723 724 726 727 727 728 730 733 736 739 743 746 749 753 755 758 761 763 766 768 771 773 773 775 775 775 776 775 775 774 773 772 771 771 770 768 768 767 766 764 762 760 758 754 752 748 745 742 740 737 734 732 729 727 725 723 721 718 714 711 708 707 704 700 698
805 801 803 798 791 793 796 801 793 784 790 778 751 737 707 677 684 694 692 695 699 700 702 706 708 705 707 709 708 710 713 716 718 719 721 722 721 724 726 729 732 735 740 743 746 748 751 754 757 760 763 765 767 769 770 772 772 772 772 772 771 771 770 769 769 768 767 766 766 764 763 762 759 757 755 751 748 745 741 739 736 733 730 728 725 722 721 718 715 712 709 706 703 702 699 695 693
797 796 798 797 795 800 796 795 796 784 779 778 771 746 692 663 676 680 678 687 692 695 696 696 700 700 702 705 704 706 709 711 714 715 716 717 718 721 724 727 730 733 737 740 742 744 747 750 753 756 759 762 764 766 767 768 769 769 769 769 768 768 767 767 767 766 764 763 763 762 760 758 756 754 751 748 745 742 739 735 732 729 727 724 721 718 716 714 710 707 704 701 698 696 694 691 688
777 778 781 780 783 792 792 789 793 790 779 769 771 751 690 662 674 674 676 686 685 690 692 688 693 694 695 700 702 704 706 706 709 710 711 714 716 719 722 725 728 731 734 736 738 741 743 746 750 753 756 758 760 762 764 764 765 766 766 766 765 764 764 765 764 762 761 761 760 759 757 755 753 750 748 745 741 738 735 732 729 726 723 720 717 714 712 710 706 703 700 697 694 692 689 686 684